星链-4769 (STARLINK-4769 )

导读 | 星芒AI

STARLINK-4769 是 SpaceX Starlink 卫星互联网项目中的一颗低轨卫星,属于“星链”计划的组成部分。该卫星由 SpaceX 研制并发射,旨在为全球用户提供高速互联网服务。它运行在约 550 公里的近地轨道上,采用先进通信技术,支持宽带数据传输。Starlink 项目通过部署数千颗卫星,构建覆盖全球的通信网络,尤其服务于偏远地区。STARLINK-4769 的发射和运行有助于提升 Starlink 网络的覆盖密度和连接稳定性。

基本信息
目录编号:
53843
目录名称:
STARLINK-4769
国际标识:
2022-114AB
轨道中心:
EARTH
卫星名称:
星链-4769
卫星全名:
星链-4769 (STARLINK-4769 )
卫星状态:
在轨 (已飞行1143 天)
发射日期:
2022-09-19 UTC
国别 :
美国 (US)
星等 :
--
轨道信息
数据来源 国际轨道数据 AOE轨道数据
星历时间 2025-11-05T02:47:06+0800
5小时前
查看轨道信息
2025-10-31T20:00:00+0800
4天前
查看轨道信息
半长轴 6917.889km 6917.895km
偏心率 0.0001465 0.0001411
轨道倾角 53.214° 53.215°
近地点辐角 88.380° 81.037°
升交点赤经 134.941° 154.170°
平近点角 271.736° 43.548°
近地点 538.74km 538.783km
远地点 540.768km 540.737km
周期 95.438分钟 95.438分钟
每日圈数 15.088373 15.088355
详细信息
固有亮度:
5
最大亮度:
2.5
卫星平台:
Starlink v1.5
覆盖范围:
全球
运营商:
太空探索技术公司
运营商所在国:
美国
制造商(研发单位):
太空探索技术公司
制造商所在国:
美国
使用方式:
暂无
卫星简介
星链(Starlink)计划是由太空探索技术公司(SpaceX)提出的一个巨型低轨卫星互联网星座项目,计划在2019年至2024年间在太空搭建由约1.2万颗卫星组成的“星链”网络,其中1584颗将部署在地球上空550千米处的近地轨道,并从2020年开始工作。该卫星仍在工作。
2D轨道图
3D轨道图
轨道高度分析图
轨道倾角分析图
轨道综合分析图
查看轨道综合分析图